Probability
0 0 0 0 0 0 0 0 0 0 0 0 0 0 0 0 0 0 0 0 0 0 0 0 0 0 0 0 0 0 0 0 0 0 0 0 0 0 0 0 0 0 0
0 0 0 0 0 0 0 0 0 0 0 0 0 0 0 0 0 0 0 0 0 0 0 0 0 0 0 0 0 0 0 0 0 0 0 0 0 0 0 0 0 0 0
0 0 0 0 0 0 0 0 0 0 0 0 0 0 0 0 0 0 0 0 0 0 0 0 0 0 0 0 0 0 0 0 0 0 0 0 0 0 0 0 0 0 0
0 0 0 0 0 0 0 0 0 0 0 0 0 0 0 0 0 0 0 0 0 0 0 0 0 0 0 0 0 0 0 0 0 0 0 0 0 0 0 0 0 0 0
0 0 0 0 0 0 0 0 0 0 0 0 0 0 0 0 0 0 0 0 0 0 0 0 0 0 0 0 0 0 0 0 0 0 0 0 0 0 0 0 0 0 0
0 0 0 0 0 0 0 0 0 0 0 0 0 0 0 0 0 0 0 0 0 0 0 0 0 0 0 0 0 0 0 0 0 0 0 0 0 0 0 0 0 0 0
0 0 0 0 0 0 0 0 0 0 0 0 0 0 0 0 0 0 0 0 0 0 0 0 0 0 0 0 0 0 0 0 0 0 0 0 0 0 0 0 0 0 0
0 0 0 0 0 0 0 0 0 0 0 0 0 0 0 0 0 0 0 0 0 0 0 0 0 0 0 0 0 0 0 0 0 0 0 0 0 0 0 0 0 0 0
0 0 0 0 0 0 0 0 0 0 0 0 0 0 0 0 0 0 0 0 0 0 0 0 0 0 0 0 0 0 0 0 0 0 0 0 0 0 0 0 0 0 0
0 0 0 0 0 0 0 0 0 0 0 0 0 0 0 0 0 0 0 0 0 0 0 0 0 0 0 0 0 0 0 0 0 0 0 0 0 0 0 0 0 0 0
0 0 0 0 0 0 0 0 0 0 0 0 0 0 0 0 0 0 0 0 0 0 0 0 0 0 0 0 0 0 0 0 0 0 0 0 0 0 0 0 0 0 0
0 0 0 0 0 0 0 0 0 0 0 0 0 0 0 0 0 0 0 0 0 0 0 0 0 0 0 0 0 0 0 0 0 0 0 0 0 0 0 0 0 0 0
0 0 0 0 0 0 0 0 0 0 0 0 0 0 0 0 0 0 0 0 0 0 0 0 0 0 0 0 0 0 0 0 0 0 0 0 0 0 0 0 0 0 0
0 0 0 0 0 0 0 0 0 0 0 0 0 0 0 0 0 0 0 0 0 0 0 0 0 0 0 0 0 0 0 0 0 0 0 0 0 0 0 0 0 0 0
0 0 0 0 0 0 0 0 0 0 0 0 0 0 0 0 0 0 0 0 0 0 0 0 0 0 0 0 0 0 0 0 0 0 0 0 0 0 0 0 0 0 0
0 0 0 0 0 0 0 0 0 0 0 0 0 0 0 0 0 0 0 0 0 0 0 0 0 0 0 0 0 0 0 0 0 0 0 0 0 0 0 0 0 0 0
0 0 0 0 0 0 0 0 0 0 0 0 0 0 0 0 0 0 0 0 0 0 0 0 0 0 0 0 0 0 0 0 0 0 0 0 0 0 0 0 0 0 0
0 0 0 0 0 0 0 0 0 0 0 0 0 0 0 0 0 0 0 0 0 0 0 0 0 0 0 0 0 0 0 0 0 0 0 0 0 0 0 0 0 0 0
0 0 0 0 0 0 0 0 0 0 0 0 0 0 0 0 0 0 0 0 0 0 0 0 0 0 0 0 0 0 0 0 0 0 0 0 0 0 0 0 0 0 0
0 0 0 0 0 0 0 0 0 0 0 0 0 0 0 0 0 0 0 0 0 0 0 0 0 0 0 0 0 0 0 0 0 0 0 0 0 0 0 0 0 0 0
0 0 0 0 0 0 0 0 0 0 0 0 0 0 0 0 0 0 0 0 0 0 0 0 0 0 0 0 0 0 0 0 0 0 0 0 0 0 0 0 0 0 0
0 0 0 0 0 0 0 0 0 0 0 0 0 0 0 0 0 0 0 0 0 0 0 0 0 0 0 0 0 0 0 0 0 0 0 0 0 0 0 0 0 0 0
0 0 0 0 0 0 0 0 0 0 0 0 0 0 0 0 0 0 0 0 0 0 0 0 0 0 0 0 0 0 0 0 0 0 0 0 0 0 0 0 0 0 0
0 0 0 0 0 0 0 0 0 0 0 0 0 0 0 0 0 0 0 0 0 0 0 0 0 0 0 0 0 0 0 0 0 0 0 0 0 0 0 0 0 0 0
0 0 0 0 0 0 0 0 0 0 0 0 0 0 0 0 0 0 0 0 0 0 0 0 0 0 0 0 0 0 0 0 0 0 0 0 0 0 0 0 0 0 0
0 0 0 0 0 0 0 0 0 0 0 0 0 0 0 0 0 0 0 0 0 0 0 0 0 0 0 0 0 0 0 0 0 0 0 0 0 0 0 0 0 0 0
Height
5806 5804 5801 5798 5796 5793 5790 5786 5783 5780 5777 5774 5771 5768 5766 5763 5761 5758 5756 5753 5750 5747 5745 5742 5740 5737 5735 5733 5730 5728 5726 5724 5722 5721 5719 5718 5717 5716 5715 5715 5714 5714 5713
5799 5797 5794 5790 5787 5784 5781 5777 5774 5771 5769 5766 5763 5760 5758 5755 5753 5749 5747 5744 5741 5737 5734 5732 5729 5726 5723 5720 5718 5716 5714 5711 5710 5708 5707 5705 5704 5703 5702 5701 5701 5700 5700
5792 5789 5786 5782 5779 5776 5773 5770 5767 5765 5762 5759 5756 5753 5750 5747 5744 5740 5737 5734 5731 5727 5724 5720 5717 5714 5711 5708 5705 5702 5700 5698 5696 5694 5693 5692 5690 5689 5688 5687 5687 5686 5686
5785 5782 5779 5775 5772 5768 5765 5762 5759 5757 5754 5751 5748 5745 5741 5738 5735 5731 5726 5723 5719 5716 5712 5708 5704 5700 5698 5695 5692 5689 5686 5683 5681 5679 5678 5677 5676 5675 5674 5673 5673 5672 5671
5778 5775 5772 5768 5765 5761 5758 5755 5751 5748 5745 5742 5739 5736 5732 5729 5725 5721 5716 5711 5707 5703 5699 5695 5690 5686 5682 5679 5677 5674 5671 5669 5666 5664 5662 5661 5660 5659 5659 5658 5658 5657 5657
5770 5767 5764 5761 5758 5754 5751 5747 5744 5740 5736 5733 5729 5726 5722 5718 5713 5709 5705 5700 5694 5689 5684 5679 5675 5671 5667 5662 5659 5656 5653 5651 5649 5647 5646 5645 5643 5642 5642 5641 5641 5641 5642
5763 5760 5756 5753 5749 5746 5742 5738 5735 5731 5726 5721 5718 5715 5711 5706 5701 5696 5691 5686 5680 5675 5669 5664 5658 5653 5649 5644 5640 5636 5633 5630 5629 5628 5627 5626 5625 5624 5624 5623 5624 5624 5625
5755 5751 5748 5744 5740 5736 5732 5728 5724 5720 5716 5710 5704 5700 5697 5695 5689 5683 5676 5670 5664 5658 5652 5646 5640 5634 5628 5623 5620 5615 5610 5607 5606 5605 5605 5605 5605 5604 5604 5604 5605 5605 5606
5747 5743 5739 5736 5732 5727 5723 5719 5714 5709 5704 5698 5691 5684 5678 5673 5671 5668 5661 5654 5647 5641 5634 5628 5621 5614 5606 5601 5597 5594 5588 5582 5579 5579 5580 5581 5582 5583 5583 5584 5585 5586 5587
5739 5735 5731 5726 5722 5718 5713 5707 5702 5695 5689 5683 5677 5669 5660 5651 5645 5642 5639 5631 5625 5619 5612 5606 5599 5590 5581 5574 5569 5566 5561 5557 5552 5550 5552 5554 5556 5559 5560 5562 5563 5564 5566
5730 5726 5721 5717 5712 5706 5700 5694 5687 5680 5673 5665 5658 5650 5642 5633 5623 5616 5613 5608 5600 5593 5585 5578 5570 5561 5551 5542 5536 5532 5529 5527 5523 5522 5523 5525 5528 5531 5534 5536 5538 5541 5543
5721 5716 5711 5706 5700 5694 5687 5680 5672 5664 5656 5647 5638 5629 5619 5610 5601 5592 5586 5583 5576 5571 5560 5551 5540 5529 5519 5510 5503 5497 5495 5493 5491 5491 5492 5494 5497 5501 5504 5508 5512 5516 5519
5711 5706 5700 5694 5688 5680 5673 5664 5656 5647 5638 5629 5619 5609 5598 5587 5576 5564 5555 5549 5545 5542 5534 5525 5510 5496 5483 5475 5470 5465 5462 5460 5458 5458 5460 5463 5467 5471 5476 5481 5485 5490 5494
5700 5695 5688 5681 5673 5665 5657 5648 5639 5629 5619 5609 5598 5587 5575 5563 5550 5536 5523 5510 5503 5503 5502 5496 5480 5464 5449 5441 5438 5435 5433 5432 5430 5430 5431 5435 5439 5442 5447 5452 5458 5463 5468
5688 5681 5674 5666 5658 5649 5640 5630 5620 5610 5599 5587 5576 5563 5550 5537 5524 5509 5494 5478 5462 5453 5458 5463 5452 5439 5421 5411 5409 5407 5406 5406 5405 5405 5406 5408 5411 5415 5418 5423 5429 5435 5442
5674 5666 5658 5649 5640 5631 5621 5611 5600 5589 5578 5565 5552 5540 5526 5512 5498 5483 5469 5454 5436 5417 5410 5419 5417 5413 5400 5387 5383 5379 5378 5380 5381 5382 5383 5384 5387 5390 5393 5397 5402 5407 5412
5659 5650 5641 5632 5622 5612 5602 5591 5580 5568 5556 5543 5529 5515 5501 5486 5471 5457 5442 5428 5414 5396 5380 5380 5380 5378 5371 5361 5354 5349 5348 5349 5353 5357 5358 5361 5364 5367 5371 5375 5379 5383 5388
5643 5633 5623 5613 5603 5593 5582 5571 5560 5547 5534 5520 5505 5490 5475 5459 5444 5429 5415 5402 5389 5375 5357 5347 5347 5343 5340 5333 5324 5318 5316 5317 5321 5327 5331 5335 5340 5345 5349 5353 5358 5362 5367
5626 5616 5606 5595 5585 5574 5563 5551 5539 5526 5511 5496 5480 5465 5449 5433 5419 5404 5391 5378 5365 5352 5338 5324 5319 5315 5311 5306 5295 5289 5285 5285 5288 5294 5300 5307 5314 5320 5326 5332 5337 5342 5347
5609 5599 5588 5577 5566 5554 5542 5530 5518 5504 5489 5473 5457 5440 5424 5409 5395 5382 5369 5356 5342 5331 5320 5308 5298 5293 5287 5281 5270 5262 5257 5256 5256 5261 5267 5276 5284 5292 5301 5309 5316 5322 5327
5592 5581 5571 5559 5547 5534 5522 5509 5496 5482 5467 5451 5435 5418 5403 5388 5374 5360 5346 5334 5322 5311 5301 5291 5282 5274 5267 5258 5249 5240 5233 5230 5230 5232 5236 5245 5256 5266 5275 5284 5292 5299 5307
5576 5565 5553 5541 5528 5515 5501 5487 5473 5460 5444 5428 5413 5400 5386 5370 5356 5343 5329 5316 5304 5293 5283 5274 5266 5257 5249 5240 5231 5223 5215 5210 5210 5214 5211 5220 5228 5238 5248 5258 5267 5276 5284
5560 5548 5536 5523 5510 5496 5482 5468 5452 5438 5422 5407 5392 5379 5366 5351 5336 5324 5314 5303 5292 5281 5269 5258 5249 5241 5232 5225 5216 5210 5203 5197 5195 5196 5195 5201 5208 5216 5225 5234 5244 5253 5263
5543 5531 5518 5505 5491 5477 5462 5447 5432 5418 5404 5388 5374 5359 5345 5332 5318 5305 5296 5288 5279 5270 5258 5247 5236 5227 5219 5211 5204 5198 5193 5189 5188 5186 5185 5189 5194 5200 5207 5216 5225 5234 5244
5527 5514 5500 5486 5472 5457 5441 5426 5411 5399 5386 5373 5358 5342 5326 5314 5301 5288 5279 5271 5264 5257 5247 5236 5225 5215 5207 5201 5194 5189 5186 5182 5182 5180 5179 5181 5185 5190 5196 5203 5211 5220 5230
5510 5496 5481 5466 5452 5437 5422 5407 5391 5379 5368 5357 5343 5327 5312 5298 5286 5275 5264 5256 5249 5243 5235 5228 5218 5208 5200 5194 5189 5184 5181 5179 5178 5177 5177 5178 5181 5184 5190 5195 5202 5210 5220
Wind_Speed
27 29 32 34 36 38 40 41 41 41 42 42 41 41 41 41 42 43 43 44 45 46 46 47 48 49 50 51 52 53 53 54 53 53 53 52 51 49 48 46 45 45 45
31 33 35 36 37 37 37 36 35 35 35 36 37 38 38 39 40 42 43 44 46 47 48 49 50 51 52 52 53 53 54 54 54 54 53 53 53 53 52 51 50 49 48
34 35 36 36 36 35 35 34 34 34 35 36 37 38 40 42 44 46 47 49 50 51 52 53 54 55 55 56 56 57 57 57 57 57 57 56 56 56 56 55 55 54 53
36 36 36 36 35 35 35 35 36 37 38 40 41 42 44 45 47 49 51 52 53 54 54 55 56 57 56 56 57 58 59 60 60 60 60 60 60 59 59 59 59 58 57
37 37 36 36 36 36 37 38 39 41 42 43 44 45 47 48 49 51 53 55 56 57 58 58 59 60 61 61 60 61 61 61 62 62 62 62 61 61 61 61 61 60 59
37 37 37 37 38 39 39 40 42 43 45 46 47 48 49 51 53 55 57 59 60 62 64 65 66 66 67 67 68 68 68 67 66 66 65 64 63 63 62 62 61 61 60
38 38 39 39 40 41 42 43 44 45 47 49 51 53 54 56 59 61 62 65 66 68 69 70 72 72 73 73 74 75 75 74 73 71 70 68 67 66 65 64 63 62 62
39 40 40 41 42 43 44 45 47 49 51 55 58 60 61 62 64 66 68 69 71 72 73 74 75 76 77 78 78 78 79 79 78 77 75 74 72 70 69 67 66 66 65
41 42 42 42 43 44 46 48 51 54 56 59 63 67 70 71 72 71 72 73 74 75 76 78 79 80 82 83 83 83 83 84 84 83 81 79 77 74 71 69 67 67 68
42 42 43 43 45 47 50 53 56 60 63 66 68 71 74 77 80 81 80 81 81 81 82 83 85 87 89 90 91 90 89 88 88 87 86 84 82 77 72 70 69 67 67
42 43 44 46 49 52 55 59 62 66 69 71 74 76 78 80 83 86 86 87 88 89 90 92 93 95 97 97 97 96 95 92 89 88 87 86 83 78 71 71 72 72 71
43 45 47 50 54 57 61 65 67 70 72 75 78 81 83 86 88 90 91 91 93 93 95 97 99 101 102 102 99 97 95 91 87 85 86 88 86 82 77 75 76 77 76
46 49 52 56 60 64 67 69 71 73 76 79 81 84 87 90 92 95 98 99 100 99 100 101 103 104 104 103 99 94 88 84 83 82 82 85 88 89 87 84 82 80 78
50 54 58 62 65 68 70 72 74 77 79 82 85 88 90 93 96 99 103 106 107 106 105 102 101 101 100 98 94 88 81 76 75 75 76 78 82 87 91 92 90 87 84
56 60 64 67 69 70 72 74 77 80 83 86 89 92 94 97 99 101 103 105 107 108 106 100 95 92 92 90 86 81 76 71 69 68 69 70 72 78 84 89 93 94 91
62 65 67 69 71 73 75 78 81 84 87 90 93 95 97 100 101 101 101 101 100 101 102 95 90 86 86 88 85 81 77 73 69 67 66 65 65 67 71 77 84 90 94
65 68 70 72 74 76 79 82 85 88 91 94 96 98 100 101 101 100 99 97 96 97 98 94 88 84 82 84 85 85 83 78 74 71 69 67 65 63 63 65 70 77 83
69 71 73 75 77 80 82 85 88 91 94 96 98 100 100 100 99 97 95 93 92 92 92 90 83 78 75 75 78 81 82 83 81 77 74 72 68 65 63 62 62 65 69
72 74 76 78 80 82 85 88 91 94 95 97 99 99 98 96 94 92 90 89 87 85 83 82 78 73 69 66 69 72 75 77 79 80 80 77 74 71 68 65 63 61 62
75 76 78 79 82 84 87 91 93 95 97 98 97 96 93 91 89 88 86 83 81 78 75 73 71 68 65 63 64 64 65 67 70 74 78 80 79 76 73 69 66 64 62
76 77 79 81 84 87 90 93 95 96 97 96 93 90 87 86 86 84 80 77 74 72 69 68 66 65 63 61 59 59 58 56 57 62 68 74 77 77 76 74 71 68 66
76 78 80 83 86 89 92 94 95 95 93 91 88 84 83 83 81 77 73 71 69 67 66 65 63 62 59 57 56 53 51 48 45 46 55 60 67 72 74 74 72 70 67
76 79 82 85 88 91 93 93 93 91 88 85 83 82 81 79 75 71 68 65 63 62 63 63 61 59 57 54 53 49 45 41 36 33 39 45 52 59 63 66 66 65 64
78 82 85 88 90 92 92 91 89 85 82 81 81 81 79 74 71 68 65 61 59 57 57 57 58 57 54 51 48 44 39 32 25 24 27 30 36 44 49 52 54 55 56
81 85 88 90 91 90 89 86 83 80 78 78 79 79 75 70 67 65 62 59 56 53 52 52 53 51 49 45 43 37 31 24 16 14 19 21 24 30 35 39 42 45 47
84 87 90 91 90 87 83 80 79 78 78 78 77 75 70 66 62 60 58 56 53 50 47 44 43 42 41 37 33 30 24 18 11 8 12 15 15 19 23 28 32 36 39
Wind_Direction
286 286 285 284 285 285 285 284 284 284 283 283 284 284 284 285 285 285 285 285 286 286 286 286 285 285 284 283 283 282 282 281 279 278 277 277 276 275 274 273 273 273 274
286 286 286 285 286 287 288 287 287 287 287 287 287 288 288 288 287 287 286 286 286 287 286 286 286 285 285 284 284 283 283 282 282 281 280 279 278 277 276 275 273 273 272
289 289 289 288 289 289 289 289 289 289 289 289 289 290 290 290 291 290 290 290 290 289 289 288 287 286 285 285 284 283 282 281 281 280 279 279 278 277 277 276 275 273 272
294 293 291 291 290 290 290 290 291 291 292 292 292 293 293 293 294 294 294 293 293 292 291 290 289 287 286 285 284 284 283 282 281 279 278 277 276 276 276 276 275 274 272
295 294 292 292 291 291 291 292 293 294 295 295 295 296 296 296 296 295 295 294 294 293 291 290 289 288 287 286 285 284 283 282 281 280 279 277 276 275 274 274 274 273 271
295 294 293 293 293 294 295 296 297 297 297 297 297 298 298 298 297 296 295 294 293 292 291 290 289 288 287 286 285 284 283 282 280 279 277 276 275 274 273 272 271 270 269
295 296 297 298 299 299 299 299 299 299 299 299 299 299 299 298 297 296 295 294 292 291 290 289 288 287 286 285 284 283 282 281 279 277 276 275 273 272 271 269 268 266 266
298 299 300 301 301 300 300 299 299 299 299 300 300 299 298 297 296 295 294 293 292 290 290 289 288 287 285 284 283 282 281 279 278 276 275 273 272 270 268 267 265 263 262
300 300 300 300 299 299 298 298 299 299 299 299 299 299 298 297 296 294 293 292 290 289 289 288 287 285 284 282 281 279 278 276 275 274 272 271 269 267 265 263 262 261 259
298 298 298 297 297 297 297 298 299 299 300 300 300 299 299 299 298 297 296 294 293 291 290 288 287 285 284 282 280 278 276 273 271 270 269 267 266 264 263 262 260 258 256
295 294 294 295 296 298 300 301 302 302 302 302 301 301 300 299 298 297 296 295 294 293 292 291 289 287 285 283 282 279 277 274 269 265 263 261 260 259 257 256 255 254 253
294 295 296 298 300 302 303 304 304 303 303 302 302 301 300 299 298 297 296 295 294 293 292 291 290 288 286 284 282 280 278 275 270 264 259 255 253 252 250 249 250 251 252
297 299 301 303 304 305 305 305 304 304 303 302 302 301 300 300 299 299 298 297 295 294 293 292 291 289 287 284 282 280 277 273 269 265 260 255 251 249 248 246 245 245 246
301 303 304 305 305 305 305 305 304 304 303 303 302 302 302 302 302 301 301 300 298 296 295 293 291 289 287 285 283 281 278 275 270 266 262 258 253 250 248 246 244 242 241
304 305 305 305 305 305 305 305 305 304 304 304 304 305 305 305 304 303 302 301 299 297 295 293 291 289 287 286 284 282 278 274 270 267 264 260 257 253 250 248 246 244 242
306 306 305 306 306 307 306 305 305 306 306 307 307 307 307 306 305 303 301 299 298 296 295 294 292 288 285 284 282 279 276 272 268 264 262 260 259 257 254 251 249 248 246
306 306 307 307 307 307 306 306 307 308 309 309 309 309 308 307 305 303 301 299 298 297 297 296 294 291 286 282 279 275 272 269 265 261 259 258 257 256 256 255 253 252 250
307 307 308 308 307 307 308 308 309 310 310 311 310 310 308 307 305 303 302 301 301 300 299 298 297 295 291 286 281 277 272 267 263 259 257 255 254 253 254 254 254 254 253
308 308 308 308 308 309 309 310 311 312 312 312 311 310 308 307 306 305 305 304 303 302 301 300 300 299 298 294 288 282 276 270 264 259 255 253 252 252 252 252 253 254 254
308 308 308 309 310 311 311 312 313 313 313 313 311 310 308 308 308 307 307 305 304 303 302 302 302 302 302 299 294 289 282 273 266 260 255 252 250 250 250 251 252 252 253
308 308 310 311 312 312 313 314 314 314 314 312 311 310 309 310 310 309 308 306 305 304 304 304 304 305 305 302 299 295 290 281 271 262 256 251 250 249 249 250 250 251 251
309 310 312 312 313 314 314 314 314 314 313 312 311 311 311 311 311 309 308 307 306 306 306 306 306 307 306 305 303 301 298 291 279 266 259 252 249 248 249 249 250 249 248
310 312 313 313 314 314 314 314 314 313 312 312 312 313 314 313 312 310 308 307 306 306 307 307 308 308 307 306 305 305 303 298 290 277 262 254 249 248 248 248 247 247 245
312 313 313 314 314 314 314 313 313 313 313 313 314 316 316 315 312 310 308 307 307 307 307 308 308 308 308 308 307 308 307 303 297 284 269 257 249 247 246 246 245 243 240
313 314 314 314 314 314 313 313 313 313 314 315 317 318 317 315 313 311 310 309 309 309 309 309 308 308 308 309 310 312 313 314 307 283 272 266 253 248 245 243 241 238 235
314 314 314 314 314 314 313 313 314 315 316 317 319 318 317 315 313 312 311 310 311 311 311 310 308 307 308 309 311 314 319 324 319 284 271 268 256 247 240 237 235 233 230